| time (UTC) | temp C | wind direction | speed KPH | gust KPH | rain 1hr cm | rain 24hr cm | rain mn cm | humidity % | barometer mb |
| 20260507002940 | 6 | 4 | 0.0 | 4.8 | 0.00 | 0.00 | 0.00 | 88 | 1014.2 |
| 20260507002913 | 6 | 4 | 1.6 | 4.8 | 0.00 | 0.00 | 0.00 | 88 | 1014.2 |
| 20260507002752 | 6 | 4 | 0.0 | 4.8 | 0.00 | 0.00 | 0.00 | 88 | 1014.2 |
| 20260507002251 | 6 | 4 | 1.6 | 4.8 | 0.00 | 0.00 | 0.00 | 88 | 1014.2 |
| 20260507001751 | 7 | 4 | 1.6 | 4.8 | 0.00 | 0.00 | 0.00 | 88 | 1014.2 |
| 20260507001252 | 7 | 32 | 0.0 | 3.2 | 0.00 | 0.00 | 0.00 | 88 | 1014.2 |
| 20260507000938 | 7 | 32 | 1.6 | 4.8 | 0.00 | 0.00 | 0.00 | 88 | 1014.1 |
| 20260507000748 | 7 | 41 | 1.6 | 4.8 | 0.00 | 0.00 | 0.00 | 88 | 1014.2 |
| 20260507000427 | 7 | 87 | 0.0 | 4.8 | 0.00 | 0.00 | 0.00 | 87 | 1014.3 |
| 20260507000248 | 7 | 41 | 1.6 | 4.8 | 0.00 | 0.00 | 0.00 | 87 | 1014.2 |
| 20260506235749 | 7 | 93 | 0.0 | 3.2 | 0.00 | 0.00 | 0.00 | 87 | 1014.2 |
| 20260506235248 | 7 | 104 | 0.0 | 3.2 | 0.00 | 0.00 | 0.00 | 87 | 1014.2 |
| 20260506234939 | 7 | 104 | 0.0 | 0.0 | 0.00 | 0.00 | 0.00 | 87 | 1014.2 |
| 20260506234749 | 7 | 104 | 0.0 | 0.0 | 0.00 | 0.00 | 0.00 | 87 | 1014.2 |
| 20260506234249 | 7 | 104 | 0.0 | 0.0 | 0.00 | 0.00 | 0.00 | 87 | 1014.3 |
| 20260506233937 | 7 | 104 | 0.0 | 0.0 | 0.00 | 0.00 | 0.00 | 86 | 1014.3 |
| 20260506233750 | 7 | 104 | 0.0 | 0.0 | 0.00 | 0.00 | 0.00 | 87 | 1014.3 |
| 20260506233247 | 7 | 104 | 0.0 | 0.0 | 0.00 | 0.00 | 0.00 | 86 | 1014.3 |
| 20260506232936 | 7 | 104 | 0.0 | 0.0 | 0.00 | 0.00 | 0.00 | 86 | 1014.2 |
| 20260506232748 | 7 | 104 | 0.0 | 0.0 | 0.00 | 0.00 | 0.00 | 86 | 1014.2 |
| 20260506232249 | 7 | 104 | 0.0 | 1.6 | 0.00 | 0.00 | 0.00 | 86 | 1014.2 |
| 20260506231932 | 7 | 104 | 0.0 | 1.6 | 0.00 | 0.00 | 0.00 | 86 | 1014.2 |
| 20260506231747 | 7 | 104 | 0.0 | 1.6 | 0.00 | 0.00 | 0.00 | 86 | 1014.2 |
| 20260506231249 | 7 | 104 | 0.0 | 1.6 | 0.00 | 0.00 | 0.00 | 86 | 1014.2 |
| 20260506230935 | 7 | 104 | 0.0 | 3.2 | 0.00 | 0.00 | 0.00 | 86 | 1014.2 |
| 20260506230747 | 7 | 104 | 0.0 | 3.2 | 0.00 | 0.00 | 0.00 | 86 | 1014.2 |
| 20260506230247 | 7 | 104 | 0.0 | 4.8 | 0.00 | 0.00 | 0.00 | 86 | 1014.2 |
| 20260506225933 | 7 | 104 | 1.6 | 4.8 | 0.00 | 0.00 | 0.00 | 86 | 1014.2 |
| 20260506225749 | 7 | 104 | 1.6 | 4.8 | 0.00 | 0.00 | 0.00 | 86 | 1014.1 |
| 20260506225248 | 7 | 106 | 1.6 | 3.2 | 0.00 | 0.00 | 0.00 | 86 | 1014.0 |
| 20260506224932 | 7 | 102 | 0.0 | 3.2 | 0.00 | 0.00 | 0.00 | 86 | 1014.1 |
| 20260506224747 | 7 | 102 | 0.0 | 3.2 | 0.00 | 0.00 | 0.00 | 86 | 1014.1 |
| 20260506224247 | 8 | 102 | 0.0 | 1.6 | 0.00 | 0.00 | 0.00 | 86 | 1014.0 |
| 20260506223933 | 8 | 102 | 0.0 | 3.2 | 0.00 | 0.00 | 0.00 | 86 | 1014.0 |
| 20260506223748 | 8 | 102 | 0.0 | 4.8 | 0.00 | 0.00 | 0.00 | 86 | 1014.0 |
| 20260506223248 | 8 | 101 | 1.6 | 4.8 | 0.00 | 0.00 | 0.00 | 86 | 1014.0 |
| 20260506222932 | 8 | 100 | 0.0 | 4.8 | 0.00 | 0.00 | 0.00 | 86 | 1014.0 |
| 20260506222748 | 8 | 102 | 0.0 | 3.2 | 0.00 | 0.00 | 0.00 | 86 | 1014.0 |
| 20260506222412 | 8 | 104 | 0.0 | 3.2 | 0.00 | 0.00 | 0.00 | 86 | 1014.1 |
| 20260506222248 | 8 | 104 | 0.0 | 1.6 | 0.00 | 0.00 | 0.00 | 86 | 1014.0 |
| 20260506221747 | 8 | 104 | 0.0 | 3.2 | 0.00 | 0.00 | 0.00 | 86 | 1014.0 |
| 20260506221247 | 8 | 104 | 1.6 | 3.2 | 0.00 | 0.00 | 0.00 | 86 | 1014.0 |
| 20260506220931 | 8 | 104 | 0.0 | 3.2 | 0.00 | 0.00 | 0.00 | 86 | 1013.9 |
| 20260506220747 | 8 | 100 | 1.6 | 3.2 | 0.00 | 0.00 | 0.00 | 86 | 1013.9 |
| 20260506220248 | 8 | 100 | 0.0 | 3.2 | 0.00 | 0.00 | 0.00 | 86 | 1013.8 |
| 20260506215930 | 8 | 104 | 1.6 | 3.2 | 0.00 | 0.00 | 0.00 | 86 | 1013.8 |
| 20260506215747 | 8 | 104 | 0.0 | 4.8 | 0.00 | 0.00 | 0.00 | 86 | 1013.8 |
| 20260506215248 | 8 | 106 | 1.6 | 4.8 | 0.00 | 0.00 | 0.00 | 86 | 1013.9 |
| 20260506214931 | 8 | 117 | 1.6 | 4.8 | 0.00 | 0.00 | 0.00 | 86 | 1013.8 |
| 20260506214850 | 8 | 75 | 0.0 | 4.8 | 0.00 | 0.00 | 0.00 | 86 | 1013.8 |
| 20260506214749 | 8 | 117 | 1.6 | 4.8 | 0.00 | 0.00 | 0.00 | 86 | 1013.9 |
| 20260506214242 | 8 | 75 | 0.0 | 4.8 | 0.00 | 0.00 | 0.00 | 86 | 1013.8 |
| 20260506213740 | 8 | 127 | 0.0 | 4.8 | 0.00 | 0.00 | 0.00 | 86 | 1013.8 |
| 20260506213242 | 8 | 68 | 0.0 | 0.0 | 0.00 | 0.00 | 0.00 | 86 | 1013.8 |
| 20260506212931 | 8 | 68 | 0.0 | 4.8 | 0.00 | 0.00 | 0.00 | 85 | 1013.8 |
| 20260506212740 | 8 | 68 | 1.6 | 4.8 | 0.00 | 0.00 | 0.00 | 85 | 1013.8 |
| 20260506212243 | 9 | 89 | 1.6 | 4.8 | 0.00 | 0.00 | 0.00 | 85 | 1013.7 |
| 20260506211934 | 9 | 87 | 1.6 | 4.8 | 0.00 | 0.00 | 0.00 | 85 | 1013.7 |
| 20260506211742 | 9 | 16 | 1.6 | 4.8 | 0.00 | 0.00 | 0.00 | 85 | 1013.6 |
| 20260506211241 | 9 | 35 | 1.6 | 4.8 | 0.00 | 0.00 | 0.00 | 85 | 1013.6 |
| 20260506210930 | 9 | 35 | 1.6 | 4.8 | 0.00 | 0.00 | 0.00 | 85 | 1013.6 |
| 20260506210740 | 9 | 35 | 1.6 | 4.8 | 0.00 | 0.00 | 0.00 | 85 | 1013.5 |
| 20260506210242 | 9 | 15 | 1.6 | 4.8 | 0.00 | 0.00 | 0.00 | 85 | 1013.5 |
| 20260506205931 | 9 | 14 | 1.6 | 4.8 | 0.00 | 0.00 | 0.00 | 84 | 1013.6 |
| 20260506205736 | 9 | 13 | 1.6 | 4.8 | 0.00 | 0.00 | 0.00 | 84 | 1013.6 |
| 20260506205237 | 9 | 65 | 1.6 | 6.4 | 0.00 | 0.00 | 0.00 | 84 | 1013.5 |
| 20260506204931 | 9 | 48 | 1.6 | 6.4 | 0.00 | 0.00 | 0.00 | 84 | 1013.5 |
| 20260506204738 | 10 | 50 | 1.6 | 6.4 | 0.00 | 0.00 | 0.00 | 84 | 1013.5 |
| 20260506204236 | 10 | 343 | 1.6 | 8.0 | 0.00 | 0.00 | 0.00 | 84 | 1013.5 |
| 20260506203931 | 10 | 341 | 1.6 | 8.0 | 0.00 | 0.00 | 0.00 | 84 | 1013.4 |
| 20260506203736 | 10 | 1 | 1.6 | 8.0 | 0.00 | 0.00 | 0.00 | 83 | 1013.4 |
| 20260506203238 | 10 | 113 | 3.2 | 8.0 | 0.00 | 0.00 | 0.00 | 83 | 1013.4 |
| 20260506202930 | 10 | 353 | 3.2 | 11.3 | 0.00 | 0.00 | 0.00 | 83 | 1013.4 |
| 20260506202739 | 10 | 343 | 3.2 | 11.3 | 0.00 | 0.00 | 0.00 | 83 | 1013.4 |
| 20260506202237 | 10 | 117 | 3.2 | 11.3 | 0.00 | 0.00 | 0.00 | 83 | 1013.4 |
| 20260506201930 | 10 | 58 | 3.2 | 6.4 | 0.00 | 0.00 | 0.00 | 82 | 1013.3 |
| 20260506201738 | 10 | 86 | 3.2 | 6.4 | 0.00 | 0.00 | 0.00 | 82 | 1013.4 |
| 20260506201232 | 10 | 88 | 3.2 | 8.0 | 0.00 | 0.00 | 0.00 | 82 | 1013.3 |
| 20260506200929 | 10 | 139 | 3.2 | 8.0 | 0.00 | 0.00 | 0.00 | 81 | 1013.3 |
| 20260506200725 | 10 | 351 | 3.2 | 8.0 | 0.00 | 0.00 | 0.00 | 81 | 1013.3 |
| 20260506200404 | 10 | 348 | 3.2 | 8.0 | 0.00 | 0.00 | 0.00 | 80 | 1013.2 |
| 20260506200219 | 10 | 105 | 3.2 | 8.0 | 0.00 | 0.00 | 0.00 | 81 | 1013.2 |
| 20260506195713 | 10 | 29 | 3.2 | 11.3 | 0.00 | 0.00 | 0.00 | 80 | 1013.1 |
| 20260506195212 | 10 | 352 | 3.2 | 11.3 | 0.00 | 0.00 | 0.00 | 79 | 1013.1 |
| 20260506194930 | 10 | 6 | 3.2 | 11.3 | 0.00 | 0.00 | 0.00 | 79 | 1013.0 |
| 20260506194712 | 10 | 41 | 3.2 | 11.3 | 0.00 | 0.00 | 0.00 | 79 | 1013.0 |
| 20260506194210 | 10 | 52 | 3.2 | 11.3 | 0.00 | 0.00 | 0.00 | 78 | 1013.0 |
| 20260506193929 | 10 | 347 | 3.2 | 11.3 | 0.00 | 0.00 | 0.00 | 78 | 1012.9 |
| 20260506193711 | 10 | 14 | 3.2 | 12.9 | 0.00 | 0.00 | 0.00 | 77 | 1012.8 |
| 20260506193212 | 10 | 64 | 4.8 | 12.9 | 0.00 | 0.00 | 0.00 | 77 | 1012.7 |
| 20260506192926 | 10 | 91 | 4.8 | 12.9 | 0.00 | 0.00 | 0.00 | 77 | 1012.8 |
| 20260506192709 | 10 | 35 | 3.2 | 11.3 | 0.00 | 0.00 | 0.00 | 76 | 1012.7 |
| 20260506192209 | 11 | 50 | 4.8 | 14.5 | 0.00 | 0.00 | 0.00 | 76 | 1012.7 |
| 20260506191924 | 11 | 169 | 4.8 | 14.5 | 0.00 | 0.00 | 0.00 | 76 | 1012.6 |
| 20260506191709 | 11 | 64 | 4.8 | 14.5 | 0.00 | 0.00 | 0.00 | 76 | 1012.6 |
| 20260506191208 | 11 | 48 | 4.8 | 12.9 | 0.00 | 0.00 | 0.00 | 76 | 1012.5 |
| 20260506190924 | 11 | 27 | 4.8 | 12.9 | 0.00 | 0.00 | 0.00 | 75 | 1012.4 |
| 20260506190850 | 11 | 137 | 4.8 | 16.1 | 0.00 | 0.00 | 0.00 | 73 | 1012.4 |
| 20260506190708 | 11 | 152 | 4.8 | 16.1 | 0.00 | 0.00 | 0.00 | 75 | 1012.5 |
| 20260506190209 | 11 | 14 | 3.2 | 16.1 | 0.00 | 0.00 | 0.00 | 74 | 1012.4 |
| 20260506185837 | 11 | 110 | 4.8 | 12.9 | 0.00 | 0.00 | 0.00 | 72 | 1012.3 |
| 20260506185706 | 11 | 110 | 3.2 | 14.5 | 0.00 | 0.00 | 0.00 | 73 | 1012.3 |
| 20260506185216 | 11 | 97 | 4.8 | 14.5 | 0.00 | 0.00 | 0.00 | 72 | 1012.3 |
| 20260506184705 | 11 | 156 | 4.8 | 14.5 | 0.00 | 0.00 | 0.00 | 72 | 1012.2 |
| 20260506184206 | 12 | 35 | 4.8 | 14.5 | 0.00 | 0.00 | 0.00 | 71 | 1012.3 |
| 20260506183923 | 12 | 296 | 4.8 | 14.5 | 0.00 | 0.00 | 0.00 | 71 | 1012.2 |
| 20260506183706 | 12 | 49 | 4.8 | 14.5 | 0.00 | 0.00 | 0.00 | 71 | 1012.2 |
| 20260506183204 | 12 | 18 | 4.8 | 14.5 | 0.00 | 0.00 | 0.00 | 69 | 1012.2 |
| 20260506182928 | 12 | 163 | 4.8 | 14.5 | 0.00 | 0.00 | 0.00 | 69 | 1012.2 |
| 20260506182659 | 12 | 354 | 4.8 | 14.5 | 0.00 | 0.00 | 0.00 | 68 | 1012.1 |
| 20260506182153 | 12 | 122 | 4.8 | 14.5 | 0.00 | 0.00 | 0.00 | 68 | 1012.0 |
| 20260506181924 | 12 | 156 | 4.8 | 12.9 | 0.00 | 0.00 | 0.00 | 68 | 1012.0 |
| 20260506181647 | 12 | 23 | 4.8 | 12.9 | 0.00 | 0.00 | 0.00 | 67 | 1012.0 |
| 20260506181141 | 12 | 58 | 4.8 | 16.1 | 0.00 | 0.00 | 0.00 | 66 | 1012.0 |
| 20260506180925 | 12 | 88 | 4.8 | 16.1 | 0.00 | 0.00 | 0.00 | 66 | 1012.0 |
| 20260506180635 | 12 | 141 | 4.8 | 16.1 | 0.00 | 0.00 | 0.00 | 66 | 1011.9 |
| 20260506180129 | 12 | 127 | 4.8 | 16.1 | 0.00 | 0.00 | 0.00 | 66 | 1012.0 |
| 20260506175924 | 13 | 41 | 4.8 | 16.1 | 0.00 | 0.00 | 0.00 | 66 | 1011.8 |
| 20260506175623 | 12 | 30 | 4.8 | 16.1 | 0.00 | 0.00 | 0.00 | 66 | 1011.9 |
| 20260506175359 | 12 | 117 | 6.4 | 16.1 | 0.00 | 0.00 | 0.00 | 65 | 1011.8 |
| 20260506175202 | 12 | 75 | 6.4 | 16.1 | 0.00 | 0.00 | 0.00 | 65 | 1011.9 |
| 20260506174611 | 12 | 41 | 6.4 | 16.1 | 0.00 | 0.00 | 0.00 | 65 | 1011.8 |
| 20260506174357 | 13 | 13 | 4.8 | 16.1 | 0.00 | 0.00 | 0.00 | 66 | 1011.6 |
| 20260506174200 | 12 | 105 | 4.8 | 14.5 | 0.00 | 0.00 | 0.00 | 66 | 1011.7 |
| 20260506173558 | 13 | 117 | 4.8 | 16.1 | 0.00 | 0.00 | 0.00 | 65 | 1011.6 |
| 20260506173053 | 13 | 181 | 6.4 | 16.1 | 0.00 | 0.00 | 0.00 | 65 | 1011.5 |
| 20260506172921 | 13 | 93 | 6.4 | 16.1 | 0.00 | 0.00 | 0.00 | 65 | 1011.5 |
| 20260506172547 | 13 | 45 | 6.4 | 16.1 | 0.00 | 0.00 | 0.00 | 65 | 1011.4 |
| 20260506172041 | 13 | 31 | 6.4 | 17.7 | 0.00 | 0.00 | 0.00 | 65 | 1011.6 |
| 20260506171919 | 13 | 75 | 6.4 | 17.7 | 0.00 | 0.00 | 0.00 | 65 | 1011.4 |
| 20260506171536 | 13 | 168 | 4.8 | 17.7 | 0.00 | 0.00 | 0.00 | 64 | 1011.4 |
| 20260506171031 | 13 | 110 | 6.4 | 17.7 | 0.00 | 0.00 | 0.00 | 64 | 1011.4 |
| 20260506170918 | 13 | 18 | 6.4 | 17.7 | 0.00 | 0.00 | 0.00 | 64 | 1011.3 |
| 20260506170523 | 13 | 42 | 6.4 | 17.7 | 0.00 | 0.00 | 0.00 | 64 | 1011.4 |
| 20260506170017 | 13 | 19 | 6.4 | 14.5 | 0.00 | 0.00 | 0.00 | 65 | 1011.2 |
| 20260506165918 | 13 | 1 | 4.8 | 17.7 | 0.00 | 0.00 | 0.00 | 64 | 1011.2 |
| 20260506165511 | 13 | 91 | 4.8 | 17.7 | 0.00 | 0.00 | 0.00 | 65 | 1011.3 |
| 20260506165005 | 13 | 112 | 4.8 | 14.5 | 0.00 | 0.00 | 0.00 | 64 | 1011.2 |
| 20260506164919 | 13 | 110 | 4.8 | 12.9 | 0.00 | 0.00 | 0.00 | 64 | 1011.3 |
| 20260506164459 | 13 | 144 | 4.8 | 11.3 | 0.00 | 0.00 | 0.00 | 65 | 1011.1 |
| 20260506163953 | 13 | 302 | 6.4 | 14.5 | 0.00 | 0.00 | 0.00 | 65 | 1011.2 |
| 20260506163921 | 13 | 12 | 6.4 | 14.5 | 0.00 | 0.00 | 0.00 | 65 | 1011.2 |
| 20260506163447 | 13 | 83 | 6.4 | 14.5 | 0.00 | 0.00 | 0.00 | 65 | 1011.1 |
| 20260506162941 | 13 | 57 | 4.8 | 16.1 | 0.00 | 0.00 | 0.00 | 65 | 1011.0 |
| 20260506162917 | 13 | 76 | 4.8 | 16.1 | 0.00 | 0.00 | 0.00 | 65 | 1011.0 |
| 20260506162435 | 13 | 71 | 6.4 | 24.1 | 0.00 | 0.00 | 0.00 | 65 | 1011.0 |
| 20260506161929 | 14 | 334 | 6.4 | 24.1 | 0.00 | 0.00 | 0.00 | 64 | 1011.1 |
| 20260506161918 | 14 | 85 | 6.4 | 24.1 | 0.00 | 0.00 | 0.00 | 64 | 1011.1 |
| 20260506161422 | 14 | 86 | 6.4 | 20.9 | 0.00 | 0.00 | 0.00 | 64 | 1011.0 |
| 20260506160918 | 14 | 150 | 6.4 | 19.3 | 0.00 | 0.00 | 0.00 | 64 | 1011.0 |
| 20260506160411 | 15 | 117 | 6.4 | 22.5 | 0.00 | 0.00 | 0.00 | 65 | 1011.1 |
| 20260506155912 | 14 | 202 | 6.4 | 22.5 | 0.00 | 0.00 | 0.00 | 65 | 1011.0 |
| 20260506155905 | 14 | 81 | 6.4 | 22.5 | 0.00 | 0.00 | 0.00 | 65 | 1011.0 |
| 20260506155359 | 15 | 154 | 6.4 | 17.7 | 0.00 | 0.00 | 0.00 | 66 | 1011.1 |
| 20260506154912 | 15 | 137 | 6.4 | 17.7 | 0.00 | 0.00 | 0.00 | 65 | 1011.0 |
| 20260506154853 | 15 | 356 | 6.4 | 17.7 | 0.00 | 0.00 | 0.00 | 65 | 1011.0 |
| 20260506154354 | 15 | 127 | 8.0 | 19.3 | 0.00 | 0.00 | 0.00 | 65 | 1011.0 |
| 20260506154347 | 15 | 68 | 6.4 | 16.1 | 0.00 | 0.00 | 0.00 | 65 | 1011.0 |
| 20260506153842 | 15 | 86 | 6.4 | 19.3 | 0.00 | 0.00 | 0.00 | 66 | 1010.9 |
| 20260506153342 | 15 | 13 | 6.4 | 19.3 | 0.00 | 0.00 | 0.00 | 65 | 1010.9 |
| 20260506152911 | 15 | 155 | 6.4 | 17.7 | 0.00 | 0.00 | 0.00 | 65 | 1010.9 |
| 20260506152846 | 15 | 73 | 6.4 | 17.7 | 0.00 | 0.00 | 0.00 | 65 | 1010.9 |
| 20260506152342 | 15 | 49 | 6.4 | 17.7 | 0.00 | 0.00 | 0.00 | 65 | 1010.9 |
| 20260506151913 | 15 | 355 | 6.4 | 19.3 | 0.00 | 0.00 | 0.00 | 67 | 1010.8 |
| 20260506151840 | 15 | 44 | 6.4 | 19.3 | 0.00 | 0.00 | 0.00 | 67 | 1010.9 |
| 20260506151341 | 15 | 86 | 6.4 | 19.3 | 0.00 | 0.00 | 0.00 | 67 | 1010.8 |
| 20260506150911 | 14 | 358 | 6.4 | 16.1 | 0.00 | 0.00 | 0.00 | 68 | 1010.8 |
| 20260506150840 | 14 | 19 | 6.4 | 16.1 | 0.00 | 0.00 | 0.00 | 67 | 1010.8 |
| 20260506150340 | 14 | 64 | 8.0 | 17.7 | 0.00 | 0.00 | 0.00 | 68 | 1010.9 |
| 20260506145911 | 14 | 139 | 8.0 | 19.3 | 0.00 | 0.00 | 0.00 | 68 | 1010.8 |
| 20260506145841 | 14 | 172 | 8.0 | 19.3 | 0.00 | 0.00 | 0.00 | 68 | 1010.9 |
| 20260506145407 | 14 | 31 | 6.4 | 17.7 | 0.00 | 0.00 | 0.00 | 67 | 1010.9 |
| 20260506145344 | 14 | 108 | 8.0 | 19.3 | 0.00 | 0.00 | 0.00 | 67 | 1010.9 |
| 20260506144839 | 14 | 358 | 6.4 | 17.7 | 0.00 | 0.00 | 0.00 | 67 | 1010.9 |
| 20260506144339 | 14 | 127 | 6.4 | 22.5 | 0.00 | 0.00 | 0.00 | 66 | 1010.9 |
| 20260506143911 | 15 | 152 | 8.0 | 22.5 | 0.00 | 0.00 | 0.00 | 65 | 1010.8 |
| 20260506143842 | 15 | 333 | 8.0 | 22.5 | 0.00 | 0.00 | 0.00 | 65 | 1010.8 |
| 20260506143824 | 15 | 81 | 6.4 | 19.3 | 0.00 | 0.00 | 0.00 | 65 | 1010.7 |
| 20260506143337 | 15 | 87 | 8.0 | 19.3 | 0.00 | 0.00 | 0.00 | 65 | 1010.6 |
| 20260506142839 | 15 | 177 | 8.0 | 19.3 | 0.00 | 0.00 | 0.00 | 65 | 1010.7 |
| 20260506142339 | 15 | 152 | 6.4 | 19.3 | 0.00 | 0.00 | 0.00 | 65 | 1010.7 |
| 20260506141912 | 14 | 171 | 6.4 | 19.3 | 0.00 | 0.00 | 0.00 | 66 | 1010.6 |
| 20260506141833 | 14 | 143 | 6.4 | 19.3 | 0.00 | 0.00 | 0.00 | 66 | 1010.7 |
| 20260506141400 | 14 | 25 | 6.4 | 14.5 | 0.00 | 0.00 | 0.00 | 66 | 1010.7 |
| 20260506141335 | 14 | 54 | 6.4 | 14.5 | 0.00 | 0.00 | 0.00 | 65 | 1010.8 |
| 20260506140833 | 14 | 166 | 6.4 | 14.5 | 0.00 | 0.00 | 0.00 | 66 | 1010.7 |
| 20260506140335 | 14 | 151 | 6.4 | 17.7 | 0.00 | 0.00 | 0.00 | 66 | 1010.7 |
| 20260506135912 | 14 | 54 | 6.4 | 17.7 | 0.00 | 0.00 | 0.00 | 67 | 1010.7 |
| 20260506135834 | 14 | 38 | 6.4 | 17.7 | 0.00 | 0.00 | 0.00 | 66 | 1010.7 |
| 20260506135334 | 14 | 133 | 6.4 | 22.5 | 0.00 | 0.00 | 0.00 | 65 | 1010.6 |
| 20260506134912 | 14 | 93 | 6.4 | 22.5 | 0.00 | 0.00 | 0.00 | 65 | 1010.7 |
| 20260506134838 | 14 | 86 | 6.4 | 22.5 | 0.00 | 0.00 | 0.00 | 65 | 1010.6 |
| 20260506134335 | 14 | 21 | 6.4 | 22.5 | 0.00 | 0.00 | 0.00 | 65 | 1010.7 |
| 20260506133912 | 14 | 12 | 8.0 | 22.5 | 0.00 | 0.00 | 0.00 | 63 | 1010.7 |
| 20260506133838 | 14 | 100 | 6.4 | 22.5 | 0.00 | 0.00 | 0.00 | 63 | 1010.7 |
| 20260506133335 | 14 | 14 | 6.4 | 22.5 | 0.00 | 0.00 | 0.00 | 64 | 1010.7 |
| 20260506132910 | 15 | 131 | 6.4 | 17.7 | 0.00 | 0.00 | 0.00 | 65 | 1010.6 |
| 20260506132833 | 15 | 122 | 6.4 | 22.5 | 0.00 | 0.00 | 0.00 | 65 | 1010.6 |
| 20260506132334 | 14 | 107 | 6.4 | 22.5 | 0.00 | 0.00 | 0.00 | 65 | 1010.6 |
| 20260506131910 | 14 | 93 | 6.4 | 22.5 | 0.00 | 0.00 | 0.00 | 66 | 1010.5 |
| 20260506131833 | 14 | 52 | 4.8 | 16.1 | 0.00 | 0.00 | 0.00 | 66 | 1010.4 |
| 20260506131334 | 15 | 107 | 4.8 | 17.7 | 0.00 | 0.00 | 0.00 | 69 | 1010.5 |
| 20260506130911 | 14 | 143 | 6.4 | 22.5 | 0.00 | 0.00 | 0.00 | 68 | 1010.5 |
| 20260506130835 | 14 | 127 | 6.4 | 22.5 | 0.00 | 0.00 | 0.00 | 69 | 1010.5 |
| 20260506130332 | 14 | 6 | 8.0 | 22.5 | 0.00 | 0.00 | 0.00 | 70 | 1010.5 |
| 20260506125911 | 14 | 135 | 8.0 | 20.9 | 0.00 | 0.00 | 0.00 | 68 | 1010.5 |
| 20260506125832 | 14 | 20 | 8.0 | 20.9 | 0.00 | 0.00 | 0.00 | 68 | 1010.5 |
| 20260506125332 | 14 | 105 | 6.4 | 17.7 | 0.00 | 0.00 | 0.00 | 69 | 1010.5 |
| 20260506124909 | 14 | 64 | 6.4 | 24.1 | 0.00 | 0.00 | 0.00 | 69 | 1010.4 |
| 20260506124826 | 14 | 156 | 8.0 | 24.1 | 0.00 | 0.00 | 0.00 | 69 | 1010.5 |
| 20260506124319 | 14 | 50 | 6.4 | 24.1 | 0.00 | 0.00 | 0.00 | 69 | 1010.5 |
| 20260506123908 | 14 | 8 | 6.4 | 16.1 | 0.00 | 0.00 | 0.00 | 69 | 1010.4 |
| 20260506123814 | 14 | 95 | 6.4 | 16.1 | 0.00 | 0.00 | 0.00 | 69 | 1010.5 |
| 20260506123308 | 14 | 148 | 4.8 | 14.5 | 0.00 | 0.00 | 0.00 | 69 | 1010.5 |
| 20260506122913 | 14 | 117 | 4.8 | 14.5 | 0.00 | 0.00 | 0.00 | 68 | 1010.5 |
| 20260506122805 | 14 | 40 | 4.8 | 16.1 | 0.00 | 0.00 | 0.00 | 68 | 1010.5 |
| 20260506122306 | 14 | 143 | 6.4 | 17.7 | 0.00 | 0.00 | 0.00 | 67 | 1010.3 |
| 20260506121910 | 14 | 181 | 6.4 | 17.7 | 0.00 | 0.00 | 0.00 | 66 | 1010.4 |
| 20260506121807 | 14 | 122 | 6.4 | 17.7 | 0.00 | 0.00 | 0.00 | 65 | 1010.4 |
| 20260506121307 | 14 | 90 | 6.4 | 17.7 | 0.00 | 0.00 | 0.00 | 65 | 1010.3 |
| 20260506120908 | 14 | 81 | 4.8 | 17.7 | 0.00 | 0.00 | 0.00 | 66 | 1010.3 |
| 20260506120803 | 14 | 144 | 4.8 | 17.7 | 0.00 | 0.00 | 0.00 | 66 | 1010.4 |
| 20260506120301 | 14 | 167 | 4.8 | 17.7 | 0.00 | 0.00 | 0.00 | 66 | 1010.3 |
| 20260506115906 | 14 | 127 | 6.4 | 16.1 | 0.00 | 0.00 | 0.00 | 68 | 1010.3 |
| 20260506115801 | 14 | 25 | 6.4 | 19.3 | 0.00 | 0.00 | 0.00 | 69 | 1010.4 |
| 20260506115300 | 14 | 6 | 6.4 | 19.3 | 0.00 | 0.00 | 0.00 | 67 | 1010.3 |
| 20260506114911 | 14 | 147 | 6.4 | 19.3 | 0.00 | 0.00 | 0.00 | 66 | 1010.3 |
| 20260506114759 | 14 | 337 | 6.4 | 17.7 | 0.00 | 0.00 | 0.00 | 67 | 1010.4 |
| 20260506114300 | 14 | 107 | 4.8 | 16.1 | 0.00 | 0.00 | 0.00 | 67 | 1010.3 |
| 20260506113907 | 14 | 18 | 4.8 | 22.5 | 0.00 | 0.00 | 0.00 | 67 | 1010.3 |
| 20260506113801 | 14 | 106 | 4.8 | 22.5 | 0.00 | 0.00 | 0.00 | 67 | 1010.3 |
| 20260506113300 | 14 | 62 | 6.4 | 22.5 | 0.00 | 0.00 | 0.00 | 68 | 1010.3 |
| 20260506112907 | 14 | 111 | 6.4 | 20.9 | 0.00 | 0.00 | 0.00 | 68 | 1010.4 |
| 20260506112800 | 14 | 107 | 6.4 | 20.9 | 0.00 | 0.00 | 0.00 | 68 | 1010.4 |
| 20260506112300 | 14 | 127 | 6.4 | 20.9 | 0.00 | 0.00 | 0.00 | 66 | 1010.3 |
| 20260506111907 | 14 | 140 | 6.4 | 17.7 | 0.00 | 0.00 | 0.00 | 66 | 1010.3 |
| 20260506111759 | 14 | 147 | 6.4 | 17.7 | 0.00 | 0.00 | 0.00 | 66 | 1010.3 |
| 20260506111300 | 14 | 141 | 6.4 | 17.7 | 0.00 | 0.00 | 0.00 | 64 | 1010.3 |
| 20260506110904 | 14 | 113 | 6.4 | 17.7 | 0.00 | 0.00 | 0.00 | 64 | 1010.3 |
| 20260506110800 | 14 | 63 | 6.4 | 17.7 | 0.00 | 0.00 | 0.00 | 64 | 1010.2 |
| 20260506110253 | 14 | 96 | 6.4 | 17.7 | 0.00 | 0.00 | 0.00 | 66 | 1010.3 |
| 20260506105905 | 14 | 167 | 6.4 | 17.7 | 0.00 | 0.00 | 0.00 | 65 | 1010.4 |
| 20260506105830 | 14 | 46 | 6.4 | 25.7 | 0.00 | 0.00 | 0.00 | 66 | 1010.3 |
| 20260506105746 | 14 | 90 | 6.4 | 17.7 | 0.00 | 0.00 | 0.00 | 66 | 1010.4 |
| 20260506105240 | 14 | 103 | 6.4 | 25.7 | 0.00 | 0.00 | 0.00 | 65 | 1010.4 |
| 20260506104734 | 14 | 93 | 6.4 | 25.7 | 0.00 | 0.00 | 0.00 | 67 | 1010.3 |
| 20260506104228 | 14 | 187 | 6.4 | 17.7 | 0.00 | 0.00 | 0.00 | 66 | 1010.3 |
| 20260506103908 | 14 | 117 | 6.4 | 17.7 | 0.00 | 0.00 | 0.00 | 66 | 1010.3 |
| 20260506103722 | 14 | 145 | 6.4 | 19.3 | 0.00 | 0.00 | 0.00 | 65 | 1010.3 |
| 20260506103216 | 14 | 145 | 6.4 | 19.3 | 0.00 | 0.00 | 0.00 | 67 | 1010.3 |
| 20260506102859 | 14 | 135 | 6.4 | 19.3 | 0.00 | 0.00 | 0.00 | 68 | 1010.3 |
| 20260506102710 | 13 | 117 | 4.8 | 16.1 | 0.00 | 0.00 | 0.00 | 69 | 1010.3 |
| 20260506102204 | 13 | 91 | 6.4 | 17.7 | 0.00 | 0.00 | 0.00 | 69 | 1010.3 |
| 20260506101859 | 13 | 70 | 6.4 | 17.7 | 0.00 | 0.00 | 0.00 | 69 | 1010.3 |
| 20260506101658 | 13 | 68 | 6.4 | 17.7 | 0.00 | 0.00 | 0.00 | 68 | 1010.3 |
| 20260506101514 | 13 | 6 | 4.8 | 14.5 | 0.00 | 0.00 | 0.00 | 71 | 1010.3 |
| 20260506101407 | 13 | 143 | 6.4 | 14.5 | 0.00 | 0.00 | 0.00 | 72 | 1010.2 |
| 20260506101334 | 13 | 117 | 4.8 | 14.5 | 0.00 | 0.00 | 0.00 | 70 | 1010.3 |
| 20260506100646 | 13 | 89 | 4.8 | 14.5 | 0.00 | 0.00 | 0.00 | 71 | 1010.3 |
| 20260506100143 | 13 | 97 | 6.4 | 14.5 | 0.00 | 0.00 | 0.00 | 73 | 1010.3 |
| 20260506095634 | 13 | 131 | 4.8 | 14.5 | 0.00 | 0.00 | 0.00 | 73 | 1010.2 |
| 20260506095127 | 13 | 338 | 4.8 | 12.9 | 0.00 | 0.00 | 0.00 | 74 | 1010.2 |
| 20260506094900 | 13 | 127 | 4.8 | 12.9 | 0.00 | 0.00 | 0.00 | 75 | 1010.2 |
| 20260506094622 | 13 | 347 | 4.8 | 12.9 | 0.00 | 0.00 | 0.00 | 75 | 1010.2 |
| 20260506094116 | 12 | 159 | 4.8 | 12.9 | 0.00 | 0.00 | 0.00 | 75 | 1010.2 |
| 20260506093900 | 12 | 6 | 4.8 | 12.9 | 0.00 | 0.00 | 0.00 | 75 | 1010.3 |
| 20260506093612 | 12 | 38 | 3.2 | 12.9 | 0.00 | 0.00 | 0.00 | 75 | 1010.2 |
| 20260506093104 | 12 | 117 | 4.8 | 12.9 | 0.00 | 0.00 | 0.00 | 76 | 1010.2 |
| 20260506092900 | 12 | 50 | 4.8 | 12.9 | 0.00 | 0.00 | 0.00 | 75 | 1010.2 |
| 20260506092558 | 12 | 68 | 6.4 | 19.3 | 0.00 | 0.00 | 0.00 | 75 | 1010.2 |
| 20260506092052 | 12 | 146 | 4.8 | 19.3 | 0.00 | 0.00 | 0.00 | 74 | 1010.2 |
| 20260506091900 | 12 | 131 | 4.8 | 19.3 | 0.00 | 0.00 | 0.00 | 74 | 1010.2 |
| 20260506091546 | 12 | 56 | 6.4 | 17.7 | 0.00 | 0.00 | 0.00 | 75 | 1010.1 |
| 20260506091040 | 12 | 254 | 6.4 | 17.7 | 0.00 | 0.00 | 0.00 | 73 | 1010.1 |
| 20260506090904 | 12 | 190 | 4.8 | 17.7 | 0.00 | 0.00 | 0.00 | 73 | 1010.1 |
| 20260506090534 | 12 | 117 | 4.8 | 17.7 | 0.00 | 0.00 | 0.00 | 74 | 1010.2 |
| 20260506090028 | 13 | 139 | 4.8 | 17.7 | 0.00 | 0.00 | 0.00 | 74 | 1010.1 |
| 20260506085856 | 13 | 132 | 4.8 | 17.7 | 0.00 | 0.00 | 0.00 | 73 | 1010.1 |
| 20260506085522 | 13 | 76 | 6.4 | 19.3 | 0.00 | 0.00 | 0.00 | 73 | 1010.1 |
| 20260506085016 | 13 | 110 | 6.4 | 19.3 | 0.00 | 0.00 | 0.00 | 73 | 1010.1 |
| 20260506084856 | 13 | 73 | 6.4 | 19.3 | 0.00 | 0.00 | 0.00 | 73 | 1010.1 |
| 20260506084814 | 13 | 65 | 4.8 | 16.1 | 0.00 | 0.00 | 0.00 | 73 | 1009.9 |
| 20260506084610 | 13 | 106 | 6.4 | 17.7 | 0.00 | 0.00 | 0.00 | 73 | 1010.0 |
| 20260506084131 | 13 | 97 | 6.4 | 16.1 | 0.00 | 0.00 | 0.00 | 72 | 1010.0 |
| 20260506083500 | 13 | 56 | 4.8 | 12.9 | 0.00 | 0.00 | 0.00 | 74 | 1010.0 |
| 20260506082952 | 13 | 53 | 4.8 | 12.9 | 0.00 | 0.00 | 0.00 | 76 | 1009.9 |
| 20260506082856 | 13 | 104 | 4.8 | 12.9 | 0.00 | 0.00 | 0.00 | 77 | 1009.9 |
| 20260506082453 | 13 | 91 | 4.8 | 12.9 | 0.00 | 0.00 | 0.00 | 77 | 1009.9 |
| 20260506081940 | 13 | 95 | 4.8 | 12.9 | 0.00 | 0.00 | 0.00 | 76 | 1010.0 |
| 20260506081854 | 13 | 95 | 4.8 | 12.9 | 0.00 | 0.00 | 0.00 | 76 | 1010.0 |
| 20260506081434 | 13 | 102 | 4.8 | 14.5 | 0.00 | 0.00 | 0.00 | 75 | 1009.9 |
| 20260506080928 | 13 | 98 | 4.8 | 14.5 | 0.00 | 0.00 | 0.00 | 76 | 1009.9 |
| 20260506080854 | 13 | 111 | 4.8 | 14.5 | 0.00 | 0.00 | 0.00 | 76 | 1009.9 |
| 20260506080822 | 12 | 85 | 4.8 | 16.1 | 0.00 | 0.00 | 0.00 | 76 | 1009.8 |
| 20260506080602 | 13 | 33 | 4.8 | 16.1 | 0.00 | 0.00 | 0.00 | 77 | 1009.8 |
| 20260506080113 | 12 | 27 | 6.4 | 16.1 | 0.00 | 0.00 | 0.00 | 76 | 1009.8 |
| 20260506073408 | 13 | 144 | 4.8 | 14.5 | 0.00 | 0.00 | 0.00 | 78 | 1009.8 |
| 20260506072907 | 12 | 93 | 6.4 | 16.1 | 0.00 | 0.00 | 0.00 | 79 | 1009.8 |
| 20260506072855 | 12 | 103 | 6.4 | 16.1 | 0.00 | 0.00 | 0.00 | 79 | 1009.8 |
| 20260506072402 | 12 | 117 | 4.8 | 16.1 | 0.00 | 0.00 | 0.00 | 80 | 1009.7 |
| 20260506071906 | 12 | 170 | 4.8 | 16.1 | 0.00 | 0.00 | 0.00 | 81 | 1009.8 |
| 20260506071853 | 12 | 16 | 4.8 | 16.1 | 0.00 | 0.00 | 0.00 | 81 | 1009.8 |
| 20260506071403 | 12 | 154 | 4.8 | 14.5 | 0.00 | 0.00 | 0.00 | 81 | 1009.8 |
| 20260506070903 | 11 | 63 | 4.8 | 14.5 | 0.00 | 0.00 | 0.00 | 82 | 1009.8 |
| 20260506070855 | 11 | 81 | 4.8 | 14.5 | 0.00 | 0.00 | 0.00 | 82 | 1009.8 |
| 20260506070825 | 11 | 97 | 3.2 | 8.0 | 0.00 | 0.00 | 0.00 | 82 | 1009.7 |
| 20260506070555 | 11 | 132 | 4.8 | 12.9 | 0.00 | 0.00 | 0.00 | 82 | 1009.7 |
| 20260506070109 | 11 | 98 | 3.2 | 8.0 | 0.00 | 0.00 | 0.00 | 82 | 1009.7 |
| 20260506062400 | 11 | 108 | 3.2 | 12.9 | 0.00 | 0.00 | 0.00 | 85 | 1009.6 |
| 20260506061901 | 11 | 85 | 3.2 | 14.5 | 0.00 | 0.00 | 0.00 | 85 | 1009.6 |
| 20260506061856 | 11 | 100 | 3.2 | 14.5 | 0.00 | 0.00 | 0.00 | 85 | 1009.6 |
| 20260506061401 | 11 | 93 | 4.8 | 14.5 | 0.00 | 0.00 | 0.00 | 85 | 1009.5 |
| 20260506060900 | 11 | 77 | 4.8 | 14.5 | 0.00 | 0.00 | 0.00 | 85 | 1009.4 |
| 20260506060855 | 11 | 41 | 4.8 | 14.5 | 0.00 | 0.00 | 0.00 | 85 | 1009.5 |
| 20260506060401 | 11 | 127 | 4.8 | 14.5 | 0.00 | 0.00 | 0.00 | 85 | 1009.4 |
| 20260506051356 | 10 | 2 | 3.2 | 11.3 | 0.00 | 0.00 | 0.00 | 85 | 1009.3 |
| 20260506050900 | 10 | 75 | 1.6 | 11.3 | 0.00 | 0.00 | 0.00 | 85 | 1009.3 |
| 20260506050852 | 10 | 75 | 1.6 | 11.3 | 0.00 | 0.00 | 0.00 | 85 | 1009.4 |
| 20260506050354 | 10 | 343 | 1.6 | 6.4 | 0.00 | 0.00 | 0.00 | 85 | 1009.4 |
| 20260506044850 | 10 | 349 | 3.2 | 11.3 | 0.00 | 0.00 | 0.00 | 85 | 1009.5 |
| 20260506044354 | 10 | 18 | 3.2 | 11.3 | 0.00 | 0.00 | 0.00 | 84 | 1009.6 |
| 20260506043859 | 10 | 52 | 3.2 | 9.7 | 0.00 | 0.00 | 0.00 | 84 | 1009.5 |
| 20260506043854 | 10 | 52 | 3.2 | 9.7 | 0.00 | 0.00 | 0.00 | 84 | 1009.6 |
| 20260506043354 | 10 | 159 | 3.2 | 12.9 | 0.00 | 0.00 | 0.00 | 84 | 1009.6 |
| 20260506042855 | 10 | 98 | 3.2 | 12.9 | 0.00 | 0.00 | 0.00 | 84 | 1009.5 |
| 20260506042849 | 10 | 359 | 3.2 | 12.9 | 0.00 | 0.00 | 0.00 | 84 | 1009.5 |
| 20260506042355 | 10 | 112 | 3.2 | 9.7 | 0.00 | 0.00 | 0.00 | 84 | 1009.6 |
| 20260506041857 | 10 | 14 | 3.2 | 9.7 | 0.00 | 0.00 | 0.00 | 84 | 1009.4 |
| 20260506041851 | 10 | 35 | 3.2 | 9.7 | 0.00 | 0.00 | 0.00 | 84 | 1009.5 |
| 20260506041354 | 10 | 66 | 3.2 | 9.7 | 0.00 | 0.00 | 0.00 | 84 | 1009.5 |
| 20260506040856 | 10 | 356 | 3.2 | 9.7 | 0.00 | 0.00 | 0.00 | 85 | 1009.5 |
| 20260506040851 | 10 | 4 | 3.2 | 9.7 | 0.00 | 0.00 | 0.00 | 85 | 1009.5 |
| 20260506040355 | 10 | 12 | 3.2 | 9.7 | 0.00 | 0.00 | 0.00 | 85 | 1009.5 |
| 20260506035855 | 10 | 68 | 3.2 | 9.7 | 0.00 | 0.00 | 0.00 | 85 | 1009.6 |
| 20260506035849 | 10 | 71 | 3.2 | 9.7 | 0.00 | 0.00 | 0.00 | 85 | 1009.5 |
| 20260506035356 | 10 | 23 | 3.2 | 9.7 | 0.00 | 0.00 | 0.00 | 85 | 1009.5 |
| 20260506034850 | 10 | 359 | 3.2 | 9.7 | 0.00 | 0.00 | 0.00 | 85 | 1009.5 |
| 20260506034342 | 10 | 112 | 3.2 | 8.0 | 0.00 | 0.00 | 0.00 | 85 | 1009.6 |
| 20260506033848 | 10 | 187 | 3.2 | 8.0 | 0.00 | 0.00 | 0.00 | 85 | 1009.5 |
| 20260506033837 | 10 | 80 | 3.2 | 8.0 | 0.00 | 0.00 | 0.00 | 85 | 1009.5 |
| 20260506033334 | 10 | 21 | 3.2 | 12.9 | 0.00 | 0.00 | 0.00 | 85 | 1009.6 |
| 20260506032844 | 10 | 127 | 4.8 | 12.9 | 0.00 | 0.00 | 0.00 | 85 | 1009.6 |
| 20260506032825 | 10 | 112 | 4.8 | 12.9 | 0.00 | 0.00 | 0.00 | 85 | 1009.6 |
| 20260506032319 | 10 | 133 | 4.8 | 14.5 | 0.00 | 0.00 | 0.00 | 86 | 1009.7 |
| 20260506031845 | 10 | 54 | 4.8 | 14.5 | 0.00 | 0.00 | 0.00 | 86 | 1009.7 |
| 20260506031813 | 10 | 9 | 4.8 | 14.5 | 0.00 | 0.00 | 0.00 | 86 | 1009.7 |
| 20260506031307 | 10 | 52 | 3.2 | 12.9 | 0.00 | 0.00 | 0.00 | 86 | 1009.8 |
| 20260506030844 | 10 | 338 | 3.2 | 11.3 | 0.00 | 0.00 | 0.00 | 86 | 1009.8 |
| 20260506030801 | 10 | 14 | 3.2 | 11.3 | 0.00 | 0.00 | 0.00 | 86 | 1009.8 |
| 20260506030255 | 10 | 143 | 1.6 | 8.0 | 0.00 | 0.00 | 0.00 | 86 | 1009.8 |
| 20260506025843 | 10 | 4 | 1.6 | 11.3 | 0.00 | 0.00 | 0.00 | 86 | 1009.9 |
| 20260506025749 | 10 | 0 | 1.6 | 11.3 | 0.00 | 0.00 | 0.00 | 86 | 1009.9 |
| 20260506025243 | 10 | 137 | 3.2 | 11.3 | 0.00 | 0.00 | 0.00 | 86 | 1009.8 |
| 20260506024844 | 10 | 127 | 3.2 | 9.7 | 0.00 | 0.00 | 0.00 | 86 | 1009.9 |
| 20260506024737 | 10 | 127 | 3.2 | 9.7 | 0.00 | 0.00 | 0.00 | 86 | 1009.9 |
| 20260506024231 | 10 | 33 | 3.2 | 12.9 | 0.00 | 0.00 | 0.00 | 86 | 1009.8 |
| 20260506023844 | 10 | 61 | 4.8 | 12.9 | 0.00 | 0.00 | 0.00 | 86 | 1009.9 |
| 20260506023725 | 10 | 314 | 4.8 | 12.9 | 0.00 | 0.00 | 0.00 | 86 | 1009.9 |
| 20260506023219 | 10 | 104 | 3.2 | 14.5 | 0.00 | 0.00 | 0.00 | 86 | 1009.9 |
| 20260506022843 | 10 | 98 | 3.2 | 14.5 | 0.00 | 0.00 | 0.00 | 86 | 1010.0 |
| 20260506022713 | 10 | 68 | 3.2 | 14.5 | 0.00 | 0.00 | 0.00 | 86 | 1010.0 |
| 20260506022209 | 10 | 21 | 3.2 | 12.9 | 0.00 | 0.00 | 0.00 | 85 | 1010.0 |
| 20260506021844 | 10 | 117 | 1.6 | 12.9 | 0.00 | 0.00 | 0.00 | 85 | 1009.8 |
| 20260506021701 | 10 | 63 | 1.6 | 12.9 | 0.00 | 0.00 | 0.00 | 84 | 1009.9 |
| 20260506021155 | 10 | 18 | 1.6 | 11.3 | 0.00 | 0.00 | 0.00 | 84 | 1010.0 |
| 20260506020839 | 10 | 26 | 1.6 | 8.0 | 0.00 | 0.00 | 0.00 | 84 | 1010.1 |
| 20260506020649 | 10 | 25 | 1.6 | 8.0 | 0.00 | 0.00 | 0.00 | 84 | 1010.1 |
| 20260506020143 | 10 | 68 | 1.6 | 9.7 | 0.00 | 0.00 | 0.00 | 84 | 1010.1 |
| 20260506015837 | 10 | 24 | 3.2 | 9.7 | 0.00 | 0.00 | 0.00 | 84 | 1010.1 |
| 20260506015637 | 10 | 1 | 1.6 | 9.7 | 0.00 | 0.00 | 0.00 | 84 | 1010.1 |
| 20260506015131 | 10 | 49 | 1.6 | 9.7 | 0.00 | 0.00 | 0.00 | 84 | 1010.2 |
| 20260506014838 | 10 | 4 | 1.6 | 6.4 | 0.00 | 0.00 | 0.00 | 85 | 1010.1 |
| 20260506014628 | 10 | 79 | 1.6 | 6.4 | 0.00 | 0.00 | 0.00 | 85 | 1010.2 |
| 20260506014127 | 10 | 32 | 1.6 | 6.4 | 0.00 | 0.00 | 0.00 | 85 | 1010.2 |
| 20260506013841 | 10 | 106 | 1.6 | 6.4 | 0.00 | 0.00 | 0.00 | 85 | 1010.2 |
| 20260506013627 | 10 | 76 | 1.6 | 6.4 | 0.00 | 0.00 | 0.00 | 85 | 1010.3 |
| 20260506013125 | 9 | 35 | 1.6 | 6.4 | 0.00 | 0.00 | 0.00 | 85 | 1010.2 |
| 20260506012837 | 9 | 349 | 1.6 | 4.8 | 0.00 | 0.00 | 0.00 | 85 | 1010.3 |
| 20260506012625 | 9 | 30 | 1.6 | 6.4 | 0.00 | 0.00 | 0.00 | 86 | 1010.3 |
| 20260506012125 | 9 | 42 | 1.6 | 6.4 | 0.00 | 0.00 | 0.00 | 86 | 1010.4 |
| 20260506011837 | 9 | 42 | 1.6 | 6.4 | 0.00 | 0.00 | 0.00 | 86 | 1010.3 |
| 20260506011623 | 9 | 21 | 1.6 | 6.4 | 0.00 | 0.00 | 0.00 | 86 | 1010.3 |
| 20260506011121 | 9 | 81 | 1.6 | 6.4 | 0.00 | 0.00 | 0.00 | 86 | 1010.4 |
| 20260506010839 | 9 | 189 | 1.6 | 6.4 | 0.00 | 0.00 | 0.00 | 86 | 1010.3 |
| 20260506010622 | 9 | 91 | 1.6 | 6.4 | 0.00 | 0.00 | 0.00 | 86 | 1010.4 |
| 20260506010122 | 9 | 3 | 1.6 | 8.0 | 0.00 | 0.00 | 0.00 | 86 | 1010.3 |
| 20260506005838 | 9 | 100 | 1.6 | 8.0 | 0.00 | 0.00 | 0.00 | 86 | 1010.3 |
| 20260506005622 | 9 | 191 | 1.6 | 8.0 | 0.00 | 0.00 | 0.00 | 86 | 1010.3 |
| 20260506005231 | 9 | 59 | 3.2 | 9.7 | 0.00 | 0.00 | 0.00 | 86 | 1010.7 |
| 20260506005120 | 9 | 117 | 1.6 | 6.4 | 0.00 | 0.00 | 0.00 | 86 | 1010.4 |
| 20260506005009 | 9 | 66 | 1.6 | 6.4 | 0.00 | 0.00 | 0.00 | 86 | 1010.4 |
| 20260506004622 | 9 | 107 | 1.6 | 9.7 | 0.00 | 0.00 | 0.00 | 86 | 1010.5 |
| 20260506004120 | 9 | 102 | 3.2 | 9.7 | 0.00 | 0.00 | 0.00 | 86 | 1010.5 |
| 20260506003618 | 9 | 88 | 3.2 | 9.7 | 0.00 | 0.00 | 0.00 | 86 | 1010.6 |